[[{"header":{"parameterUnit":"m.s-1","parameterCategory":1,"la1":30.2991,"la2":30.254,"lo1":-89.0895,"lo2":-89.0444,"dy":0.0017,"dx":0.0017,"nx":28,"ny":28,"refTime":"2025-01-25T03:00:00:Z","depth":0,"parameterNumber":2,"parameterNumberName":"U-component_of_WINDS"},"data":[0,0,0,0,0,0,0,0,0,0,0,0,0,0,0,0,0,0,0,0,0,0,0,0,0,0,0,0,0,0,0,0,0,0,0,0,0,0,0,0,0,0,0,0,0,0,0,0,0,0,0,0,0,0,0,0,0,0,-3.7077,-3.7077,0,-3.707,-3.707,-3.707,-3.6955,-3.6952,-3.6949,-3.6947,-3.6946,-3.6949,-3.6952,0,0,0,0,0,0,0,0,0,0,0,0,0,-3.6998,-3.7,-3.7077,-3.7077,-3.7077,-3.707,-3.707,-3.707,-3.6956,-3.6952,-3.6949,-3.6945,-3.6945,-3.6949,-3.6952,0,0,0,0,0,0,0,0,0,0,0,0,0,-3.7016,-3.7,-3.7077,-3.7019,-3.7013,-3.707,-3.707,-3.707,-3.6956,-3.6952,-3.6948,-3.6943,-3.6944,-3.6948,-3.6952,-3.7067,0,0,-3.6965,-3.6967,0,0,0,0,0,0,0,0,-3.7015,-3.7019,-3.7027,-3.7023,-3.7017,-3.7009,-3.7042,-3.7069,-3.6958,-3.6978,-3.6946,-3.6941,-3.6971,-3.6973,-3.6981,-3.7067,-3.7066,-3.6965,-3.6968,-3.697,-3.6971,0,0,0,0,0,0,0,-3.7014,-3.7019,-3.7074,-3.7028,-3.7021,-3.6995,-3.6993,-3.7047,-3.7,-3.6976,-3.6968,-3.6968,-3.6968,-3.6978,-3.6981,-3.7066,-3.6965,-3.6969,-3.6971,-3.6973,-3.7247,-3.7252,0,0,0,0,0,0,-3.702,-3.7018,-3.7075,-3.7074,-3.7005,-3.7,-3.6998,-3.7016,-3.6999,-3.6992,-3.6972,-3.6963,-3.6973,-3.6976,-3.698,-3.7114,-3.697,-3.6974,-3.6976,-3.7243,-3.7248,-3.7254,0,0,0,0,0,0,-3.7019,-3.7026,-3.7075,-3.7044,-3.7048,-3.7006,-3.7028,-3.7018,-3.7028,-3.6996,-3.6987,-3.6991,-3.697,-3.6974,-3.7046,-3.7113,-3.6975,-3.6979,-3.7237,-3.7244,-3.7251,-3.7383,0,0,0,0,0,0,-3.7017,-3.7026,-3.7067,-3.7046,-3.705,-3.7139,-3.7032,-3.7021,-3.7035,-3.7023,-3.7011,-3.7005,-3.6966,-3.704,-3.705,-3.7116,-3.6982,-3.7231,-3.724,-3.7249,-3.7372,-3.7394,-3.7412,0,0,0,0,0,-3.7014,-3.7106,-3.707,-3.7078,-3.7101,-3.7143,-3.7146,-3.7098,-3.7041,-3.7083,-3.7062,-3.7005,-3.7103,-3.7049,-3.7059,-3.7127,-3.7226,-3.7237,-3.7248,-3.7364,-3.739,-3.7411,0,0,0,0,0,0,-3.7139,-3.7102,-3.7062,-3.7149,-3.715,-3.7124,-3.7176,-3.7127,-3.7146,-3.7134,-3.7076,-3.7074,-3.7156,-3.7148,-3.7088,-3.7237,-3.7155,-3.7168,-3.724,-3.7264,-3.7283,-3.7285,-3.6986,0,0,0,0,0,-3.7176,-3.7211,-3.7178,-3.7258,-3.726,-3.7218,-3.7235,-3.7198,-3.7197,-3.7198,-3.7182,-3.7186,-3.7218,-3.724,-3.7267,-3.737,-3.7368,-3.7422,-3.7442,-3.7458,-3.7471,-3.7528,-3.7552,-3.7289,-3.7289,-3.7289,0,0,-3.7254,-3.7238,-3.7264,-3.7282,-3.7279,-3.7319,-3.7219,-3.7266,-3.7296,-3.7205,-3.7272,-3.7261,-3.7262,-3.735,-3.7388,-3.7346,-3.7543,-3.7472,-3.7485,-3.7489,-3.7541,-3.7566,-3.7589,-3.7296,-3.7295,-3.7294,0,0,-3.7416,-3.7407,-3.7473,-3.7471,-3.7467,-3.7438,-3.7454,-3.7436,-3.7424,-3.7489,-3.7423,-3.7459,-3.7514,-3.7518,-3.7527,-3.7693,-3.7642,-3.7703,-3.7807,-3.7863,-3.7884,-3.7902,-3.7963,-3.7986,-3.7716,-3.7716,-3.7716,0,-3.7515,-3.757,-3.7514,-3.7565,-3.7577,-3.7494,-3.7562,-3.7564,-3.757,-3.7581,-3.7533,-3.7601,-3.7596,-3.7685,-3.7725,-3.7735,-3.7754,-3.7705,-3.7885,-3.7902,-3.7919,-3.7977,-3.8,-3.7724,-3.7723,-3.7722,-3.7721,0,-3.7692,-3.7732,-3.7787,-3.7793,-3.781,-3.7869,-3.7825,-3.7849,-3.7811,-3.7788,-3.7858,-3.7848,-3.7872,-3.789,-3.7854,-3.7976,-3.795,-3.7894,-3.7811,-3.7952,-3.8006,-3.8028,-3.7735,-3.7732,-3.773,-3.7728,0,0,-3.7934,-3.7907,-3.7929,-3.7931,-3.792,-3.7951,-3.8008,-3.803,-3.8054,-3.8061,-3.8109,-3.8158,-3.8107,-3.8117,-3.8081,-3.8129,-3.8264,-3.8068,-3.8067,-3.8107,-3.84,-3.8444,-3.847,-3.8229,-3.8233,-3.8236,-3.8401,0,-3.8093,-3.8187,-3.8138,-3.824,-3.8277,-3.82,-3.825,-3.825,-3.8231,-3.8262,-3.8241,-3.8278,-3.8206,-3.8212,-3.8257,-3.8238,-3.8323,-3.8225,-3.8277,-3.8279,-3.8281,-3.8498,-3.8544,-3.87,-3.8421,-3.8425,-3.8427,0,-3.8291,-3.8305,-3.8409,-3.8392,-3.8406,-3.8452,-3.847,-3.8499,-3.8499,-3.8482,-3.8494,-3.8446,-3.8504,-3.8419,-3.8499,-3.8434,-3.8453,-3.8447,-3.8452,-3.8457,-3.8364,-3.8511,-3.8748,-3.8773,-3.8459,-3.8457,-3.8455,0,-3.846,-3.8505,-3.8573,-3.8577,-3.8559,-3.8593,-3.8587,-3.8582,-3.8599,-3.8615,-3.8626,-3.8649,-3.8663,-3.8683,-3.8644,-3.8586,-3.8731,-3.8643,-3.8721,-3.8723,-3.8757,-3.8756,-3.9003,-3.8765,-3.8765,-3.8764,-3.8764,0,-3.8644,-3.8712,-3.8649,-3.8692,-3.8766,-3.8711,-3.8787,-3.8773,-3.8769,-3.881,-3.8744,-3.8785,-3.8729,-3.8765,-3.8735,-3.8807,-3.8813,-3.8803,-3.8795,-3.8811,-3.8812,-3.8824,-3.8813,-3.877,-3.8769,-3.8768,-3.8767,0,-3.8846,-3.8806,-3.8877,-3.8853,-3.8849,-3.8905,-3.8886,-3.8926,-3.8901,-3.8954,-3.8963,-3.8927,-3.8965,-3.8927,-3.8964,-3.8944,-3.9042,-3.9017,-3.9042,-3.9036,-3.9117,-3.9111,-3.9382,-3.9416,-3.9154,-3.9157,-3.9159,0,-3.8967,-3.9017,-3.8999,-3.902,-3.9018,-3.9053,-3.907,-3.9018,-3.9039,-3.9042,-3.9083,-3.9115,-3.9139,-3.9204,-3.9183,-3.9211,-3.9188,-3.9281,-3.9192,-3.9207,-3.9193,-3.9191,-3.9197,-3.93,-3.9303,-3.9305,-3.9307,0,-3.9187,-3.9165,-3.919,-3.921,-3.9231,-3.9244,-3.9253,-3.9275,-3.9221,-3.9248,-3.9285,-3.9304,-3.934,-3.9375,-3.9397,-3.9393,-3.9344,-3.9335,-3.9355,-3.9373,-3.9387,-3.9383,-3.9094,-3.933,-3.9328,-3.9326,-3.9325,-3.9324,-3.9354,-3.9396,-3.9389,-3.9421,-3.9421,-3.9431,-3.9467,-3.9447,-3.9477,-3.9502,-3.9469,-3.9517,-3.9517,-3.954,-3.9543,-3.9581,-3.9543,-3.9571,-3.9579,-3.9588,-3.9601,-3.9378,-3.9585,-3.9584,-3.9584,-3.9583,-3.9583,0,-3.9573,-3.9565,-3.9594,-3.9607,-3.9632,-3.9579,-3.9586,-3.9612,-3.9653,-3.9657,-3.9681,-3.9725,-3.9759,-3.9739,-3.9768,-3.9803,-3.9781,-3.9813,-3.9811,-3.9812,-3.9632,-3.9613,-3.983,-3.983,-3.983,-3.983,-3.983,-3.983,-3.969,-3.9758,-3.9736,-3.9805,-3.9796,-3.9841,-3.985,-3.9859,-3.9861,-3.9914,-3.994,-3.9926,-3.9922,-3.995,-3.9979,-3.9973,-3.9988,-4.0029,-4.0015,-3.9848,-3.9824,-3.9801,-3.9783,-4.0032,-4.0032,-4.0191,-4.0193,-4.0194]},{"header":{"parameterUnit":"m.s-1","parameterCategory":1,"la1":30.2991,"la2":30.254,"lo1":-89.0895,"lo2":-89.0444,"dy":0.0017,"dx":0.0017,"nx":28,"ny":28,"refTime":"2025-01-25T03:00:00:Z","depth":0,"parameterNumber":3,"parameterNumberName":"V-component_of_WINDS"},"data":[0,0,0,0,0,0,0,0,0,0,0,0,0,0,0,0,0,0,0,0,0,0,0,0,0,0,0,0,0,0,0,0,0,0,0,0,0,0,0,0,0,0,0,0,0,0,0,0,0,0,0,0,0,0,0,0,0,0,-1.3403,-1.3402,0,-1.34,-1.3399,-1.3399,-1.3333,-1.3331,-1.3329,-1.3328,-1.3326,-1.3327,-1.3329,0,0,0,0,0,0,0,0,0,0,0,0,0,-1.3351,-1.3352,-1.3403,-1.3402,-1.3402,-1.34,-1.3399,-1.3399,-1.3333,-1.3331,-1.3329,-1.3327,-1.3325,-1.3327,-1.3329,0,0,0,0,0,0,0,0,0,0,0,0,0,-1.3363,-1.3352,-1.3403,-1.3369,-1.3366,-1.34,-1.3399,-1.3399,-1.3333,-1.3331,-1.3328,-1.3326,-1.3324,-1.3327,-1.3329,-1.3395,0,0,-1.3336,-1.3337,0,0,0,0,0,0,0,0,-1.3363,-1.3365,-1.3374,-1.3371,-1.3368,-1.3364,-1.338,-1.3398,-1.3334,-1.3346,-1.3328,-1.3325,-1.334,-1.3341,-1.3346,-1.3395,-1.3395,-1.3336,-1.3338,-1.3339,-1.3339,0,0,0,0,0,0,0,-1.3362,-1.3365,-1.3401,-1.3374,-1.3371,-1.3354,-1.3353,-1.3383,-1.3358,-1.3345,-1.334,-1.334,-1.3338,-1.3344,-1.3346,-1.3395,-1.3336,-1.3338,-1.334,-1.3341,-1.3496,-1.3499,0,0,0,0,0,0,-1.3365,-1.3365,-1.3401,-1.3401,-1.3359,-1.3357,-1.3356,-1.3368,-1.3357,-1.3353,-1.3342,-1.3337,-1.3342,-1.3343,-1.3346,-1.3422,-1.3339,-1.3341,-1.3342,-1.3493,-1.3497,-1.35,0,0,0,0,0,0,-1.3365,-1.3369,-1.3402,-1.3382,-1.3384,-1.3361,-1.3375,-1.3369,-1.3375,-1.3355,-1.3351,-1.3353,-1.334,-1.3342,-1.3383,-1.3421,-1.3342,-1.3344,-1.349,-1.3494,-1.3498,-1.3575,0,0,0,0,0,0,-1.3363,-1.3369,-1.3394,-1.3383,-1.3386,-1.3439,-1.3377,-1.3371,-1.3379,-1.3372,-1.3364,-1.3361,-1.3338,-1.338,-1.3385,-1.3422,-1.3346,-1.3487,-1.3492,-1.3497,-1.3569,-1.3581,-1.3591,0,0,0,0,0,-1.3362,-1.3416,-1.3396,-1.3401,-1.3416,-1.3441,-1.3443,-1.3416,-1.3382,-1.3407,-1.3394,-1.3361,-1.3416,-1.3384,-1.339,-1.3429,-1.3484,-1.349,-1.3496,-1.3564,-1.3579,-1.3591,0,0,0,0,0,0,-1.3434,-1.3414,-1.3391,-1.3444,-1.3445,-1.343,-1.3461,-1.3432,-1.3443,-1.3436,-1.3402,-1.34,-1.3446,-1.3441,-1.3407,-1.3491,-1.3444,-1.3451,-1.3493,-1.3507,-1.3518,-1.3519,-1.3348,0,0,0,0,0,-1.3456,-1.3478,-1.3459,-1.3507,-1.3509,-1.3485,-1.3495,-1.3473,-1.3473,-1.3473,-1.3463,-1.3465,-1.3482,-1.3494,-1.3509,-1.3567,-1.3565,-1.3596,-1.3608,-1.3617,-1.3624,-1.3655,-1.3669,-1.352,-1.352,-1.352,0,0,-1.3501,-1.3493,-1.3509,-1.3522,-1.352,-1.3543,-1.3486,-1.3513,-1.353,-1.3477,-1.3515,-1.3508,-1.3507,-1.3557,-1.3578,-1.3554,-1.3665,-1.3625,-1.3633,-1.3635,-1.3662,-1.3677,-1.3689,-1.3524,-1.3523,-1.3523,0,0,-1.3596,-1.3593,-1.3632,-1.3631,-1.3629,-1.3612,-1.3622,-1.3611,-1.3604,-1.3641,-1.3602,-1.3622,-1.3652,-1.3653,-1.3658,-1.3752,-1.3722,-1.3758,-1.3817,-1.3847,-1.3859,-1.3869,-1.3903,-1.3916,-1.3765,-1.3765,-1.3765,0,-1.3654,-1.3687,-1.3656,-1.3686,-1.3692,-1.3645,-1.3684,-1.3685,-1.3688,-1.3693,-1.3666,-1.3703,-1.3699,-1.3748,-1.3771,-1.3776,-1.3786,-1.3759,-1.386,-1.387,-1.3879,-1.3911,-1.3923,-1.3769,-1.3769,-1.3769,-1.3768,0,-1.3757,-1.3781,-1.3813,-1.3817,-1.3827,-1.3862,-1.3835,-1.3849,-1.3826,-1.3813,-1.3851,-1.3844,-1.3857,-1.3867,-1.3845,-1.3913,-1.3898,-1.3866,-1.3817,-1.3898,-1.3927,-1.3939,-1.3776,-1.3774,-1.3773,-1.3772,0,0,-1.3899,-1.3884,-1.3896,-1.3897,-1.389,-1.3908,-1.3941,-1.3952,-1.3965,-1.3968,-1.3994,-1.4021,-1.3991,-1.3996,-1.3974,-1.4,-1.4075,-1.3964,-1.3964,-1.3986,-1.4149,-1.4174,-1.4189,-1.4055,-1.4057,-1.4059,-1.4149,0,-1.3991,-1.4045,-1.4017,-1.4075,-1.4096,-1.4051,-1.4079,-1.4078,-1.4066,-1.4083,-1.4069,-1.4089,-1.4047,-1.405,-1.4074,-1.4061,-1.4108,-1.4054,-1.4079,-1.408,-1.4081,-1.4204,-1.423,-1.4316,-1.4161,-1.4163,-1.4164,0,-1.4106,-1.4113,-1.4173,-1.4162,-1.417,-1.4196,-1.4204,-1.422,-1.4218,-1.4207,-1.4213,-1.4184,-1.4215,-1.4167,-1.4209,-1.4173,-1.4181,-1.4176,-1.4179,-1.4181,-1.4128,-1.4209,-1.4343,-1.4356,-1.4182,-1.418,-1.4179,0,-1.4203,-1.4228,-1.4267,-1.4269,-1.4257,-1.4276,-1.4272,-1.4267,-1.4276,-1.4283,-1.4288,-1.4299,-1.4305,-1.4314,-1.429,-1.4257,-1.4335,-1.4285,-1.4327,-1.4328,-1.4346,-1.4346,-1.4484,-1.4351,-1.4351,-1.4351,-1.4351,0,-1.4309,-1.4347,-1.431,-1.4335,-1.4376,-1.4343,-1.4386,-1.4377,-1.4373,-1.4394,-1.4355,-1.4377,-1.4342,-1.436,-1.4341,-1.4378,-1.4381,-1.4374,-1.4368,-1.4378,-1.4379,-1.4383,-1.4377,-1.4354,-1.4354,-1.4353,-1.4352,0,-1.4425,-1.4402,-1.4441,-1.4426,-1.4423,-1.4455,-1.4442,-1.4463,-1.4448,-1.4476,-1.448,-1.4457,-1.4476,-1.4451,-1.4468,-1.4455,-1.4507,-1.4492,-1.4508,-1.4503,-1.4547,-1.4544,-1.4694,-1.4712,-1.4567,-1.4569,-1.457,0,-1.4494,-1.4523,-1.4511,-1.4522,-1.452,-1.4539,-1.4547,-1.4516,-1.4526,-1.4526,-1.4547,-1.4563,-1.4573,-1.4605,-1.459,-1.4602,-1.4588,-1.4639,-1.459,-1.4598,-1.4589,-1.4588,-1.4591,-1.465,-1.4652,-1.4653,-1.4654,0,-1.462,-1.4607,-1.462,-1.463,-1.4641,-1.4647,-1.465,-1.4661,-1.4628,-1.4642,-1.466,-1.4669,-1.4685,-1.4701,-1.4709,-1.4705,-1.4675,-1.467,-1.468,-1.4691,-1.4698,-1.4695,-1.4536,-1.4667,-1.4666,-1.4665,-1.4664,-1.4663,-1.4715,-1.4738,-1.4733,-1.4749,-1.4748,-1.4751,-1.4771,-1.4758,-1.4772,-1.4783,-1.4763,-1.4787,-1.4783,-1.4791,-1.479,-1.4808,-1.4786,-1.4801,-1.4805,-1.4809,-1.4816,-1.4695,-1.4809,-1.4809,-1.4809,-1.4808,-1.4808,0,-1.4839,-1.4833,-1.4848,-1.4853,-1.4866,-1.4835,-1.4837,-1.485,-1.487,-1.487,-1.488,-1.4902,-1.4916,-1.4902,-1.4914,-1.4931,-1.4918,-1.4935,-1.4934,-1.4934,-1.4835,-1.4825,-1.4946,-1.4946,-1.4946,-1.4946,-1.4946,-1.4946,-1.4905,-1.4942,-1.4928,-1.4964,-1.4958,-1.498,-1.4984,-1.4987,-1.4986,-1.5011,-1.5023,-1.5013,-1.5007,-1.5018,-1.503,-1.5025,-1.5032,-1.5055,-1.5046,-1.4954,-1.4941,-1.4928,-1.4918,-1.5056,-1.5057,-1.5142,-1.5143,-1.5144]}]]